EW6466 Weather Reports


Display with metric or nautical units.
time (UTC)temp
F
wind
direction
speed
MPH
gust
MPH
rain 1hr
in
rain 24hr
in
rain mn
in
humidity
%
barometer
mb
20260507033102 61 71 5.0 13.0 0.00 0.02 0.02 86 1011.9
20260507031555 61 33 6.0 10.0 0.00 0.02 0.02 85 1011.8
20260507030105 61 22 7.0 14.0 0.00 0.02 0.02 85 1011.5
20260507024554 62 36 6.0 14.0 0.00 0.02 0.02 85 1011.7
20260507023048 62 59 7.0 12.0 0.00 0.02 0.02 85 1011.3
20260507021550 62 24 9.0 14.0 0.00 0.02 0.02 85 1011.0
20260507020046 62 71 5.0 13.0 0.00 0.02 0.02 85 1010.9
20260507014552 62 75 3.0 10.0 0.00 0.02 0.02 85 1010.6
20260507013037 63 10 5.0 11.0 0.00 0.02 0.02 85 1010.4
20260507011534 63 34 8.0 12.0 0.00 0.02 0.02 84 1010.2
20260507010031 63 13 6.0 14.0 0.00 0.02 0.02 84 1010.0
20260507004528 63 31 7.0 13.0 0.00 0.02 0.02 84 1009.8
20260507003025 63 64 8.0 15.0 0.00 0.02 0.02 83 1009.8
20260507001524 64 28 6.0 16.0 0.00 0.02 0.02 83 1009.4
20260507000027 64 31 7.0 13.0 0.00 0.02 0.02 82 1009.3
20260506234518 65 30 7.0 13.0 0.00 0.02 0.02 81 1009.1
20260506233015 66 24 6.0 15.0 0.00 0.02 0.02 80 1009.0
20260506231513 67 67 2.0 10.0 0.00 0.02 0.02 80 1009.1
20260506230012 68 57 5.0 14.0 0.00 0.02 0.02 79 1008.6
20260506224510 69 71 4.0 14.0 0.00 0.02 0.02 78 1008.4
20260506223009 71 54 7.0 14.0 0.00 0.02 0.02 76 1008.2
20260506221508 73 28 8.0 13.0 0.00 0.02 0.02 76 1007.8
20260506220008 73 31 7.0 13.0 0.00 0.02 0.02 75 1008.0
20260506214507 75 43 6.0 12.0 0.00 0.02 0.02 75 1008.1
20260506213013 76 32 2.0 11.0 0.00 0.02 0.02 75 1008.0
20260506211509 76 16 6.0 11.0 0.00 0.02 0.02 76 1007.9
20260506210008 75 50 6.0 12.0 0.00 0.02 0.02 77 1008.0
20260506204506 77 28 3.0 8.0 0.00 0.02 0.02 75 1008.1
20260506203003 78 34 8.0 12.0 0.00 0.02 0.02 75 1008.0
20260506201506 79 59 7.0 12.0 0.00 0.02 0.02 72 1008.2
20260506200002 79 47 3.0 6.0 0.00 0.02 0.02 73 1008.4
20260506194502 79 37 4.0 9.0 0.00 0.02 0.02 74 1008.5
20260506193058 77 30 2.0 9.0 0.00 0.02 0.02 79 1008.6
20260506191555 76 51 1.0 10.0 0.00 0.02 0.02 82 1008.8
20260506190052 74 27 3.0 9.0 0.00 0.02 0.02 82 1009.0
20260506184555 74 40 3.0 6.0 0.00 0.02 0.02 83 1009.2
20260506183050 73 41 0.0 8.0 0.00 0.02 0.02 84 1009.3
20260506181551 73 26 2.0 8.0 0.00 0.02 0.02 84 1009.1
20260506180050 71 32 3.0 9.0 0.00 0.02 0.02 85 1009.4
20260506174549 70 20 3.0 6.0 0.00 0.02 0.02 86 1009.6
20260506173107 70 20 1.0 6.0 0.00 0.02 0.02 86 1009.7
20260506171555 69 16 3.0 7.0 0.00 0.02 0.02 87 1009.4
20260506170050 69 54 2.0 9.0 0.00 0.02 0.02 87 1009.4
20260506164546 67 35 2.0 9.0 0.00 0.02 0.02 87 1009.4
20260506163059 67 38 3.0 8.0 0.01 0.02 0.02 87 1009.2
20260506161544 67 61 2.0 9.0 0.01 0.02 0.02 87 1009.1
20260506160042 67 48 5.0 10.0 0.02 0.02 0.02 87 1008.9
20260506154538 69 11 6.0 17.0 0.02 0.02 0.02 86 1008.7
20260506153038 72 196 0.0 0.0 0.01 0.01 0.01 87 1008.4
20260506151532 72 196 1.0 3.0 0.01 0.01 0.01 87 1008.3
20260506150032 72 196 0.0 0.0 0.00 0.00 0.00 87 1008.2
20260506144531 72 196 0.0 0.0 0.00 0.00 0.00 87 1008.2
20260506143030 72 196 0.0 0.0 0.00 0.00 0.00 87 1008.2
20260506141528 71 196 0.0 2.0 0.00 0.00 0.00 87 1008.1
20260506140025 71 196 1.0 5.0 0.00 0.00 0.00 87 1007.7
20260506134523 71 191 0.0 6.0 0.00 0.00 0.00 87 1007.3
20260506133021 71 150 1.0 5.0 0.00 0.00 0.00 87 1006.7
20260506131519 71 149 1.0 3.0 0.00 0.00 0.00 87 1006.4
20260506130017 71 149 1.0 3.0 0.00 0.00 0.00 87 1006.5
20260506124517 71 146 0.0 9.0 0.00 0.00 0.00 87 1006.3
20260506123015 71 171 4.0 9.0 0.00 0.00 0.00 87 1006.2
20260506121514 71 194 2.0 7.0 0.00 0.00 0.00 87 1006.1
20260506120013 71 59 3.0 12.0 0.00 0.00 0.00 87 1006.0
20260506114513 72 38 0.0 4.0 0.00 0.00 0.00 87 1006.0
20260506113015 72 259 0.0 5.0 0.00 0.00 0.00 87 1006.1
20260506111511 72 173 2.0 10.0 0.00 0.00 0.00 87 1006.2
20260506110010 72 159 4.0 11.0 0.00 0.00 0.00 87 1006.3
20260506104510 72 146 1.0 9.0 0.00 0.00 0.00 87 1006.3
20260506103008 72 163 3.0 9.0 0.00 0.00 0.00 87 1006.2
20260506101507 72 243 3.0 10.0 0.00 0.00 0.00 87 1006.2
20260506100007 72 194 3.0 8.0 0.00 0.00 0.00 87 1006.0
20260506094506 72 178 4.0 10.0 0.00 0.00 0.00 87 1006.0
20260506093011 72 5 3.0 8.0 0.00 0.00 0.00 87 1006.1
20260506091503 72 240 6.0 13.0 0.00 0.00 0.00 87 1005.8
20260506090002 72 202 5.0 13.0 0.00 0.00 0.00 86 1006.0
20260506084603 72 182 2.0 9.0 0.00 0.00 0.00 86 1005.9
20260506083058 72 216 1.0 6.0 0.00 0.00 0.00 86 1005.6
20260506081556 73 51 3.0 8.0 0.00 0.00 0.00 86 1005.8
20260506080107 73 226 3.0 12.0 0.00 0.00 0.00 85 1005.9
20260506073102 74 65 3.0 10.0 0.00 0.00 0.00 85 1005.9
20260506071548 74 236 5.0 13.0 0.00 0.00 0.00 85 1006.2
20260506061556 75 52 2.0 9.0 0.00 0.00 0.00 84 1006.5
20260506044537 75 28 1.0 8.0 0.00 0.00 0.00 82 1006.4
20260506043035 76 18 1.0 10.0 0.00 0.00 0.00 81 1006.3
20260506041535 76 49 0.0 6.0 0.00 0.00 0.00 81 1006.2
20260506040034 75 49 4.0 9.0 0.00 0.00 0.00 81 1005.8
20260506034534 75 329 2.0 6.0 0.00 0.00 0.00 82 1005.7